Tracking 32110 objects as of 7-Nov-2025
HD Live streaming from Space Station
objects crossing your sky now

USA 167

Track USA 167 now!
USA 167 is classified as:


NORAD ID: 27691
Int'l Code: 2003-008A
Perigee: 35,776.3 km
Apogee: 35,811.3 km
Inclination: 10.5 °
Period: 1,436.1 minutes
Semi major axis: 42164 km
RCS: Unknown
Launch date: March 11, 2003
Source: United States (US)
Launch site: AIR FORCE EASTERN TEST RANGE (AFETR)

Super High Frequency (SHF) for U.S. government and military; sophisticated survivability enhancement; worldwide, longhaul coverage; X-band.
Your satellite tracking list
Your tracking list is empty




NASA's NSSDC Master Catalog

Two Line Element Set (TLE):
1 27691U 03008A   25311.27334297  .00000010  00000-0  00000-0 0  9996
2 27691  10.5197  45.3509 0004153 245.5423  92.1496  1.00271682  4545
Source of the keplerian elements: McCants